РПИ Тбилиси*

Грузинский район полетной информации (UGGG, УГГГ) обеспечивает организацию воздушного движения в воздушном пространстве Грузии и над юго-восточной частью акватории Черного моря в сети VATSIM.

В состав РПИ входят три международных аэропорта, один из которых также считается региональным аэропортом Турции (Тбилиси, Батуми и Кутаиси), два региональных (Местия и Амбролаури), а также два аэродрома авиации общего назначения (Телави и Натахтари).

РПИ Тбилиси является частью макрорегиона Кавказ в составе сети VATSIM.

В воздушном пространстве Грузии и Армении по соглашению обеих стран в верхнем воздушном пространстве возможно применение Free-Route при планировании маршрута. На схеме ниже представлены точки на границе воздушного пространства Грузии. Точки на границе с воздушным пространством Армении (отмечены как (I)) обязательно должны быть указаны в плане полета, если полет проходит через оба воздушных пространства по технологии Free-Route.

Tbilisi Radar (UGGG_CTR) sectors

United 125.125

Georgian Free-Route waypoints on the borders of the airspace

Руководство

Grigori Badalov*

Куратор

Gregory Adamov

Помощник куратора по мероприятиям
Инструкторы РПИ
Grigori Badalov (Instructor)
Входит в состав
Кавказ

Диспетчеры РПИ

Диспетчер Рейтинг Допуски *
Anatoly Zhilkin Controller UGGG_CTR
Grigori Badalov Instructor UGGG_CTR
Ivan Chernov Senior Controller UGGG_CTR
Valeriy Polostyanoy Instructor UGGG_CTR

Аэропорты РПИ

ICAO Город Название Погода
UGTB Тбилиси Тбилиси UGTB 240730Z 19003KT 120V250 CAVOK 20/09 Q1023 NOSIG
UGSB Батуми Батуми UGSB 240730Z 11013KT CAVOK 27/05 Q1015 NOSIG
UGKO Кутаиси Кутаиси UGKO 240730Z 08019KT CAVOK 23/12 Q1016 NOSIG
UGAM Амбролаури Амбролаури UGAM 240730Z 28005KT CAVOK 14/07 Q1021
UGMS Местия Местия UGMS 240730Z AUTO 23003KT 200V270 //// ////// 13/M00 Q1025
UGSA Натахтари Натахтари
UGGT Телави Телави